Year,Month,Day,Hour,Minute,Value (Times are PST for temperature in C)
2006,06,12,00,00,15.00
2006,06,12,00,01,15.00
2006,06,12,00,02,15.00
2006,06,12,00,03,15.00
2006,06,12,00,04,15.00
2006,06,12,00,05,14.90
2006,06,12,00,06,14.90
2006,06,12,00,07,14.90
2006,06,12,00,08,14.90
2006,06,12,00,09,14.90
2006,06,12,00,10,14.90
2006,06,12,00,11,14.80
2006,06,12,00,12,14.80
2006,06,12,00,13,14.80
2006,06,12,00,14,14.80
2006,06,12,00,15,14.80
2006,06,12,00,16,14.80
2006,06,12,00,17,14.80
2006,06,12,00,18,14.80
2006,06,12,00,19,14.70
2006,06,12,00,20,14.70
2006,06,12,00,21,14.70
2006,06,12,00,22,14.70
2006,06,12,00,23,14.60
2006,06,12,00,24,14.60
2006,06,12,00,25,14.60
2006,06,12,00,26,14.60
2006,06,12,00,27,14.60
2006,06,12,00,28,14.50
2006,06,12,00,29,14.50
2006,06,12,00,30,14.50
2006,06,12,00,31,14.50
2006,06,12,00,32,14.40
2006,06,12,00,33,14.40
2006,06,12,00,34,14.40
2006,06,12,00,35,14.40
2006,06,12,00,36,14.30
2006,06,12,00,37,14.30
2006,06,12,00,38,14.30
2006,06,12,00,39,14.30
2006,06,12,00,40,14.20
2006,06,12,00,41,14.20
2006,06,12,00,42,14.20
2006,06,12,00,43,14.20
2006,06,12,00,44,14.20
2006,06,12,00,45,14.20
2006,06,12,00,46,14.20
2006,06,12,00,47,14.20
2006,06,12,00,48,14.20
2006,06,12,00,49,14.20
2006,06,12,00,50,14.20
2006,06,12,00,51,14.10
2006,06,12,00,52,14.10
2006,06,12,00,53,14.10
2006,06,12,00,54,14.10
2006,06,12,00,55,14.10
2006,06,12,00,56,14.10
2006,06,12,00,57,14.00
2006,06,12,00,58,14.00
2006,06,12,00,59,14.00
2006,06,12,01,00,14.00
2006,06,12,01,01,14.00
2006,06,12,01,02,14.00
2006,06,12,01,03,14.00
2006,06,12,01,04,14.00
2006,06,12,01,05,14.00
2006,06,12,01,06,14.00
2006,06,12,01,07,14.00
2006,06,12,01,08,13.90
2006,06,12,01,09,13.90
2006,06,12,01,10,13.90
2006,06,12,01,11,13.90
2006,06,12,01,12,13.90
2006,06,12,01,13,13.90
2006,06,12,01,14,13.90
2006,06,12,01,15,13.90
2006,06,12,01,16,13.90
2006,06,12,01,17,13.90
2006,06,12,01,18,13.90
2006,06,12,01,19,13.90
2006,06,12,01,20,14.00
2006,06,12,01,21,14.00
2006,06,12,01,22,14.00
2006,06,12,01,23,14.00
2006,06,12,01,24,14.00
2006,06,12,01,25,14.00
2006,06,12,01,26,14.00
2006,06,12,01,27,14.00
2006,06,12,01,28,14.00
2006,06,12,01,29,14.00
2006,06,12,01,30,14.00
2006,06,12,01,31,14.00
2006,06,12,01,32,13.90
2006,06,12,01,33,13.90
2006,06,12,01,34,13.90
2006,06,12,01,35,13.90
2006,06,12,01,36,13.90
2006,06,12,01,37,13.90
2006,06,12,01,38,13.90
2006,06,12,01,39,13.90
2006,06,12,01,40,13.90
2006,06,12,01,41,13.90
2006,06,12,01,42,13.90
2006,06,12,01,43,13.90
2006,06,12,01,44,13.90
2006,06,12,01,45,13.90
2006,06,12,01,46,13.90
2006,06,12,01,47,14.00
2006,06,12,01,48,14.00
2006,06,12,01,49,14.00
2006,06,12,01,50,14.00
2006,06,12,01,51,14.00
2006,06,12,01,52,14.00
2006,06,12,01,53,14.00
2006,06,12,01,54,14.00
2006,06,12,01,55,14.00
2006,06,12,01,56,14.00
2006,06,12,01,57,14.00
2006,06,12,01,58,14.00
2006,06,12,01,59,14.00
2006,06,12,02,00,14.00
2006,06,12,02,01,14.00
2006,06,12,02,02,14.00
2006,06,12,02,03,14.00
2006,06,12,02,04,14.00
2006,06,12,02,05,14.00
2006,06,12,02,06,14.00
2006,06,12,02,07,14.00
2006,06,12,02,08,14.00
2006,06,12,02,09,14.00
2006,06,12,02,10,14.00
2006,06,12,02,11,14.00
2006,06,12,02,12,14.00
2006,06,12,02,13,13.90
2006,06,12,02,14,13.90
2006,06,12,02,15,13.90
2006,06,12,02,16,13.90
2006,06,12,02,17,13.90
2006,06,12,02,18,13.90
2006,06,12,02,19,13.90
2006,06,12,02,20,13.90
2006,06,12,02,21,13.90
2006,06,12,02,22,13.90
2006,06,12,02,23,13.90
2006,06,12,02,24,14.00
2006,06,12,02,25,14.00
2006,06,12,02,26,14.00
2006,06,12,02,27,14.00
2006,06,12,02,28,14.00
2006,06,12,02,29,14.00
2006,06,12,02,30,14.00
2006,06,12,02,31,14.00
2006,06,12,02,32,14.00
2006,06,12,02,33,14.00
2006,06,12,02,34,14.00
2006,06,12,02,35,13.90
2006,06,12,02,36,13.90
2006,06,12,02,37,14.00
2006,06,12,02,38,14.00
2006,06,12,02,39,14.00
2006,06,12,02,40,14.00
2006,06,12,02,41,13.90
2006,06,12,02,42,14.00
2006,06,12,02,43,14.00
2006,06,12,02,44,14.00
2006,06,12,02,45,13.90
2006,06,12,02,46,14.00
2006,06,12,02,47,13.90
2006,06,12,02,48,13.90
2006,06,12,02,49,13.90
2006,06,12,02,50,13.90
2006,06,12,02,51,14.00
2006,06,12,02,52,14.00
2006,06,12,02,53,14.00
2006,06,12,02,54,14.00
2006,06,12,02,55,14.00
2006,06,12,02,56,14.00
2006,06,12,02,57,14.00
2006,06,12,02,58,13.90
2006,06,12,02,59,13.90
2006,06,12,03,00,13.90
2006,06,12,03,01,13.80
2006,06,12,03,02,13.80
2006,06,12,03,03,13.80
2006,06,12,03,04,13.80
2006,06,12,03,05,13.70
2006,06,12,03,06,13.70
2006,06,12,03,07,13.70
2006,06,12,03,08,13.70
2006,06,12,03,09,13.70
2006,06,12,03,10,13.70
2006,06,12,03,11,13.70
2006,06,12,03,12,13.60
2006,06,12,03,13,13.60
2006,06,12,03,14,13.60
2006,06,12,03,15,13.60
2006,06,12,03,16,13.60
2006,06,12,03,17,13.50
2006,06,12,03,18,13.50
2006,06,12,03,19,13.50
2006,06,12,03,20,13.50
2006,06,12,03,21,13.50
2006,06,12,03,22,13.50
2006,06,12,03,23,13.50
2006,06,12,03,24,13.50
2006,06,12,03,25,13.50
2006,06,12,03,26,13.50
2006,06,12,03,27,13.50
2006,06,12,03,28,13.50
2006,06,12,03,29,13.50
2006,06,12,03,30,13.50
2006,06,12,03,31,13.50
2006,06,12,03,32,13.50
2006,06,12,03,33,13.50
2006,06,12,03,34,13.50
2006,06,12,03,35,13.50
2006,06,12,03,36,13.50
2006,06,12,03,37,13.60
2006,06,12,03,38,13.60
2006,06,12,03,39,13.60
2006,06,12,03,40,13.60
2006,06,12,03,41,13.60
2006,06,12,03,42,13.60
2006,06,12,03,43,13.60
2006,06,12,03,44,13.60
2006,06,12,03,45,13.60
2006,06,12,03,46,13.50
2006,06,12,03,47,13.50
2006,06,12,03,48,13.50
2006,06,12,03,49,13.50
2006,06,12,03,50,13.50
2006,06,12,03,51,13.50
2006,06,12,03,52,13.50
2006,06,12,03,53,13.50
2006,06,12,03,54,13.50
2006,06,12,03,55,13.50
2006,06,12,03,56,13.50
2006,06,12,03,57,13.50
2006,06,12,03,58,13.50
2006,06,12,03,59,13.50
2006,06,12,04,00,13.50
2006,06,12,04,01,13.50
2006,06,12,04,02,13.50
2006,06,12,04,03,13.50
2006,06,12,04,04,13.50
2006,06,12,04,05,13.50
2006,06,12,04,06,13.50
2006,06,12,04,07,13.50
2006,06,12,04,08,13.50
2006,06,12,04,09,13.50
2006,06,12,04,10,13.40
2006,06,12,04,11,13.40
2006,06,12,04,12,13.40
2006,06,12,04,13,13.40
2006,06,12,04,14,13.40
2006,06,12,04,15,13.40
2006,06,12,04,16,13.40
2006,06,12,04,17,13.40
2006,06,12,04,18,13.40
2006,06,12,04,19,13.40
2006,06,12,04,20,13.40
2006,06,12,04,21,13.40
2006,06,12,04,22,13.40
2006,06,12,04,23,13.40
2006,06,12,04,24,13.40
2006,06,12,04,25,13.40
2006,06,12,04,26,13.30
2006,06,12,04,27,13.30
2006,06,12,04,28,13.30
2006,06,12,04,29,13.30
2006,06,12,04,30,13.20
2006,06,12,04,31,13.20
2006,06,12,04,32,13.10
2006,06,12,04,33,13.10
2006,06,12,04,34,13.10
2006,06,12,04,35,13.10
2006,06,12,04,36,13.00
2006,06,12,04,37,13.00
2006,06,12,04,38,13.00
2006,06,12,04,39,12.90
2006,06,12,04,40,12.90
2006,06,12,04,41,12.80
2006,06,12,04,42,12.80
2006,06,12,04,43,12.80
2006,06,12,04,44,12.80
2006,06,12,04,45,12.80
2006,06,12,04,46,12.80
2006,06,12,04,47,12.80
2006,06,12,04,48,12.80
2006,06,12,04,49,12.70
2006,06,12,04,50,12.70
2006,06,12,04,51,12.70
2006,06,12,04,52,12.60
2006,06,12,04,53,12.60
2006,06,12,04,54,12.60
2006,06,12,04,55,12.60
2006,06,12,04,56,12.60
2006,06,12,04,57,12.60
2006,06,12,04,58,12.60
2006,06,12,04,59,12.60
2006,06,12,05,00,12.50
2006,06,12,05,01,12.50
2006,06,12,05,02,12.50
2006,06,12,05,03,12.50
2006,06,12,05,04,12.50
2006,06,12,05,05,12.50
2006,06,12,05,06,12.40
2006,06,12,05,07,12.40
2006,06,12,05,08,12.40
2006,06,12,05,09,12.40
2006,06,12,05,10,12.40
2006,06,12,05,11,12.40
2006,06,12,05,12,12.40
2006,06,12,05,13,12.40
2006,06,12,05,14,12.30
2006,06,12,05,15,12.30
2006,06,12,05,16,12.30
2006,06,12,05,17,12.30
2006,06,12,05,18,12.30
2006,06,12,05,19,12.30
2006,06,12,05,20,12.30
2006,06,12,05,21,12.30
2006,06,12,05,22,12.30
2006,06,12,05,23,12.30
2006,06,12,05,24,12.40
2006,06,12,05,25,12.40
2006,06,12,05,26,12.40
2006,06,12,05,27,12.50
2006,06,12,05,28,12.40
2006,06,12,05,29,12.40
2006,06,12,05,30,12.30
2006,06,12,05,31,12.30
2006,06,12,05,32,12.30
2006,06,12,05,33,12.30
2006,06,12,05,34,12.30
2006,06,12,05,35,12.30
2006,06,12,05,36,12.30
2006,06,12,05,37,12.20
2006,06,12,05,38,12.20
2006,06,12,05,39,12.20
2006,06,12,05,40,12.20
2006,06,12,05,41,12.20
2006,06,12,05,42,12.20
2006,06,12,05,43,12.20
2006,06,12,05,44,12.20
2006,06,12,05,45,12.20
2006,06,12,05,46,12.30
2006,06,12,05,47,12.30
2006,06,12,05,48,12.30
2006,06,12,05,49,12.30
2006,06,12,05,50,12.30
2006,06,12,05,51,12.30
2006,06,12,05,52,12.30
2006,06,12,05,53,12.30
2006,06,12,05,54,12.30
2006,06,12,05,55,12.30
2006,06,12,05,56,12.30
2006,06,12,05,57,12.30
2006,06,12,05,58,12.40
2006,06,12,05,59,12.40
2006,06,12,06,00,12.50
2006,06,12,06,01,12.50
2006,06,12,06,02,12.60
2006,06,12,06,03,12.60
2006,06,12,06,04,12.60
2006,06,12,06,05,12.60
2006,06,12,06,06,12.60
2006,06,12,06,07,12.70
2006,06,12,06,08,12.70
2006,06,12,06,09,12.80
2006,06,12,06,10,12.80
2006,06,12,06,11,12.80
2006,06,12,06,12,12.90
2006,06,12,06,13,12.90
2006,06,12,06,14,13.00
2006,06,12,06,15,13.00
2006,06,12,06,16,13.10
2006,06,12,06,17,13.10
2006,06,12,06,18,13.10
2006,06,12,06,19,13.10
2006,06,12,06,20,13.10
2006,06,12,06,21,13.10
2006,06,12,06,22,13.20
2006,06,12,06,23,13.20
2006,06,12,06,24,13.20
2006,06,12,06,25,13.30
2006,06,12,06,26,13.30
2006,06,12,06,27,13.30
2006,06,12,06,28,13.40
2006,06,12,06,29,13.50
2006,06,12,06,30,13.50
2006,06,12,06,31,13.60
2006,06,12,06,32,13.60
2006,06,12,06,33,13.70
2006,06,12,06,34,13.80
2006,06,12,06,35,13.90
2006,06,12,06,36,13.90
2006,06,12,06,37,14.00
2006,06,12,06,38,14.10
2006,06,12,06,39,14.20
2006,06,12,06,40,14.20
2006,06,12,06,41,14.30
2006,06,12,06,42,14.30
2006,06,12,06,43,14.30
2006,06,12,06,44,14.50
2006,06,12,06,45,14.50
2006,06,12,06,46,14.50
2006,06,12,06,47,14.50
2006,06,12,06,48,14.60
2006,06,12,06,49,14.60
2006,06,12,06,50,14.60
2006,06,12,06,51,14.60
2006,06,12,06,52,14.70
2006,06,12,06,53,14.70
2006,06,12,06,54,14.70
2006,06,12,06,55,14.70
2006,06,12,06,56,14.70
2006,06,12,06,57,14.70
2006,06,12,06,58,14.70
2006,06,12,06,59,14.70
2006,06,12,07,00,14.80
2006,06,12,07,01,14.80
2006,06,12,07,02,14.80
2006,06,12,07,03,14.90
2006,06,12,07,04,14.90
2006,06,12,07,05,15.00
2006,06,12,07,06,15.00
2006,06,12,07,07,15.10
2006,06,12,07,08,15.10
2006,06,12,07,09,15.20
2006,06,12,07,10,15.20
2006,06,12,07,11,15.30
2006,06,12,07,12,15.30
2006,06,12,07,13,15.30
2006,06,12,07,14,15.30
2006,06,12,07,15,15.40
2006,06,12,07,16,15.40
2006,06,12,07,17,15.50
2006,06,12,07,18,15.60
2006,06,12,07,19,15.60
2006,06,12,07,20,15.70
2006,06,12,07,21,15.70
2006,06,12,07,22,15.80
2006,06,12,07,23,15.80
2006,06,12,07,24,15.80
2006,06,12,07,25,15.80
2006,06,12,07,26,15.80
2006,06,12,07,27,15.90
2006,06,12,07,28,15.90
2006,06,12,07,29,15.90
2006,06,12,07,30,16.00
2006,06,12,07,31,16.10
2006,06,12,07,32,16.10
2006,06,12,07,33,16.10
2006,06,12,07,34,16.10
2006,06,12,07,35,16.10
2006,06,12,07,36,16.10
2006,06,12,07,37,16.10
2006,06,12,07,38,16.20
2006,06,12,07,39,16.20
2006,06,12,07,40,16.20
2006,06,12,07,41,16.30
2006,06,12,07,42,16.30
2006,06,12,07,43,16.30
2006,06,12,07,44,16.30
2006,06,12,07,45,16.30
2006,06,12,07,46,16.30
2006,06,12,07,47,16.30
2006,06,12,07,48,16.30
2006,06,12,07,49,16.30
2006,06,12,07,50,16.30
2006,06,12,07,51,16.40
2006,06,12,07,52,16.40
2006,06,12,07,53,16.40
2006,06,12,07,54,16.40
2006,06,12,07,55,16.40
2006,06,12,07,56,16.50
2006,06,12,07,57,16.60
2006,06,12,07,58,16.60
2006,06,12,07,59,16.70
2006,06,12,08,00,16.70
2006,06,12,08,01,16.70
2006,06,12,08,02,16.70
2006,06,12,08,03,16.70
2006,06,12,08,04,16.80
2006,06,12,08,05,16.90
2006,06,12,08,06,16.90
2006,06,12,08,07,17.00
2006,06,12,08,08,17.00
2006,06,12,08,09,17.10
2006,06,12,08,10,17.10
2006,06,12,08,11,17.20
2006,06,12,08,12,17.30
2006,06,12,08,13,17.30
2006,06,12,08,14,17.30
2006,06,12,08,15,17.40
2006,06,12,08,16,17.40
2006,06,12,08,17,17.40
2006,06,12,08,18,17.40
2006,06,12,08,19,17.50
2006,06,12,08,20,17.60
2006,06,12,08,21,17.60
2006,06,12,08,22,17.60
2006,06,12,08,23,17.60
2006,06,12,08,24,17.60
2006,06,12,08,25,17.60
2006,06,12,08,26,17.60
2006,06,12,08,27,17.60
2006,06,12,08,28,17.50
2006,06,12,08,29,17.50
2006,06,12,08,30,17.50
2006,06,12,08,31,17.50
2006,06,12,08,32,17.50
2006,06,12,08,33,17.50
2006,06,12,08,34,17.50
2006,06,12,08,35,17.40
2006,06,12,08,36,17.40
2006,06,12,08,37,17.40
2006,06,12,08,38,17.40
2006,06,12,08,39,17.40
2006,06,12,08,40,17.40
2006,06,12,08,41,17.40
2006,06,12,08,42,17.40
2006,06,12,08,43,17.40
2006,06,12,08,44,17.40
2006,06,12,08,45,17.50
2006,06,12,08,46,17.50
2006,06,12,08,47,17.60
2006,06,12,08,48,17.60
2006,06,12,08,49,17.70
2006,06,12,08,50,17.80
2006,06,12,08,51,17.90
2006,06,12,08,52,17.90
2006,06,12,08,53,17.90
2006,06,12,08,54,18.00
2006,06,12,08,55,18.10
2006,06,12,08,56,18.10
2006,06,12,08,57,18.20
2006,06,12,08,58,18.20
2006,06,12,08,59,18.20
2006,06,12,09,00,18.20
2006,06,12,09,01,18.20
2006,06,12,09,02,18.20
2006,06,12,09,03,18.20
2006,06,12,09,04,18.20
2006,06,12,09,05,18.20
2006,06,12,09,06,18.20
2006,06,12,09,07,18.20
2006,06,12,09,08,18.20
2006,06,12,09,09,18.10
2006,06,12,09,10,18.10
2006,06,12,09,11,18.10
2006,06,12,09,12,18.10
2006,06,12,09,13,18.10
2006,06,12,09,14,18.10
2006,06,12,09,15,18.10
2006,06,12,09,16,18.10
2006,06,12,09,17,18.10
2006,06,12,09,18,18.10
2006,06,12,09,19,18.20
2006,06,12,09,20,18.20
2006,06,12,09,21,18.30
2006,06,12,09,22,18.20
2006,06,12,09,23,18.30
2006,06,12,09,24,18.30
2006,06,12,09,25,18.40
2006,06,12,09,26,18.50
2006,06,12,09,27,18.50
2006,06,12,09,28,18.50
2006,06,12,09,29,18.50
2006,06,12,09,30,18.70
2006,06,12,09,31,18.80
2006,06,12,09,32,18.90
2006,06,12,09,33,18.90
2006,06,12,09,34,18.90
2006,06,12,09,35,19.00
2006,06,12,09,36,19.00
2006,06,12,09,37,18.90
2006,06,12,09,38,18.90
2006,06,12,09,39,18.90
2006,06,12,09,40,18.90
2006,06,12,09,41,18.90
2006,06,12,09,42,18.90
2006,06,12,09,43,18.90
2006,06,12,09,44,19.00
2006,06,12,09,45,19.10
2006,06,12,09,46,19.10
2006,06,12,09,47,19.20
2006,06,12,09,48,19.30
2006,06,12,09,49,19.30
2006,06,12,09,50,19.30
2006,06,12,09,51,19.40
2006,06,12,09,52,19.40
2006,06,12,09,53,19.30
2006,06,12,09,54,19.40
2006,06,12,09,55,19.40
2006,06,12,09,56,19.50
2006,06,12,09,57,19.60
2006,06,12,09,58,19.60
2006,06,12,09,59,19.70
2006,06,12,10,00,19.70
2006,06,12,10,01,19.80
2006,06,12,10,02,19.90
2006,06,12,10,03,20.10
2006,06,12,10,04,20.10
2006,06,12,10,05,20.10
2006,06,12,10,06,20.10
2006,06,12,10,07,20.00
2006,06,12,10,08,19.90
2006,06,12,10,09,19.90
2006,06,12,10,10,19.90
2006,06,12,10,11,19.90
2006,06,12,10,12,20.10
2006,06,12,10,13,20.20
2006,06,12,10,14,20.30
2006,06,12,10,15,20.20
2006,06,12,10,16,20.20
2006,06,12,10,17,20.20
2006,06,12,10,18,20.20
2006,06,12,10,19,20.10
2006,06,12,10,20,20.20
2006,06,12,10,21,20.20
2006,06,12,10,22,20.20
2006,06,12,10,23,20.20
2006,06,12,10,24,20.20
2006,06,12,10,25,20.30
2006,06,12,10,26,20.40
2006,06,12,10,27,20.50
2006,06,12,10,28,20.50
2006,06,12,10,29,20.40
2006,06,12,10,30,20.30
2006,06,12,10,31,20.20
2006,06,12,10,32,20.20
2006,06,12,10,33,20.20
2006,06,12,10,34,20.20
2006,06,12,10,35,20.20
2006,06,12,10,36,20.20
2006,06,12,10,37,20.20
2006,06,12,10,38,20.20
2006,06,12,10,39,20.20
2006,06,12,10,40,20.20
2006,06,12,10,41,20.20
2006,06,12,10,42,20.20
2006,06,12,10,43,20.20
2006,06,12,10,44,20.20
2006,06,12,10,45,20.20
2006,06,12,10,46,20.20
2006,06,12,10,47,20.20
2006,06,12,10,48,20.20
2006,06,12,10,49,20.20
2006,06,12,10,50,20.30
2006,06,12,10,51,20.40
2006,06,12,10,52,20.50
2006,06,12,10,53,20.60
2006,06,12,10,54,20.60
2006,06,12,10,55,20.60
2006,06,12,10,56,20.60
2006,06,12,10,57,20.60
2006,06,12,10,58,20.70
2006,06,12,10,59,20.70
2006,06,12,11,00,20.70
2006,06,12,11,01,20.70
2006,06,12,11,02,20.80
2006,06,12,11,03,20.70
2006,06,12,11,04,20.80
2006,06,12,11,05,20.80
2006,06,12,11,06,20.70
2006,06,12,11,07,20.60
2006,06,12,11,08,20.50
2006,06,12,11,09,20.40
2006,06,12,11,10,20.40
2006,06,12,11,11,20.20
2006,06,12,11,12,20.20
2006,06,12,11,13,20.40
2006,06,12,11,14,20.50
2006,06,12,11,15,20.60
2006,06,12,11,16,20.60
2006,06,12,11,17,20.60
2006,06,12,11,18,20.50
2006,06,12,11,19,20.50
2006,06,12,11,20,20.50
2006,06,12,11,21,20.50
2006,06,12,11,22,20.50
2006,06,12,11,23,20.50
2006,06,12,11,24,20.60
2006,06,12,11,25,20.60
2006,06,12,11,26,20.60
2006,06,12,11,27,20.50
2006,06,12,11,28,20.40
2006,06,12,11,29,20.30
2006,06,12,11,30,20.30
2006,06,12,11,31,20.30
2006,06,12,11,32,20.30
2006,06,12,11,33,20.30
2006,06,12,11,34,20.30
2006,06,12,11,35,20.30
2006,06,12,11,36,20.30
2006,06,12,11,37,20.30
2006,06,12,11,38,20.20
2006,06,12,11,39,20.20
2006,06,12,11,40,20.20
2006,06,12,11,41,20.30
2006,06,12,11,42,20.40
2006,06,12,11,43,20.50
2006,06,12,11,44,20.50
2006,06,12,11,45,20.60
2006,06,12,11,46,20.70
2006,06,12,11,47,20.70
2006,06,12,11,48,20.80
2006,06,12,11,49,20.80
2006,06,12,11,50,20.90
2006,06,12,11,51,21.00
2006,06,12,11,52,21.10
2006,06,12,11,53,21.30
2006,06,12,11,54,21.40
2006,06,12,11,55,21.50
2006,06,12,11,56,21.50
2006,06,12,11,57,21.50
2006,06,12,11,58,21.40
2006,06,12,11,59,21.30
2006,06,12,12,00,21.30
2006,06,12,12,01,21.20
2006,06,12,12,02,21.20
2006,06,12,12,03,21.20
2006,06,12,12,04,21.20
2006,06,12,12,05,21.30
2006,06,12,12,06,21.40
2006,06,12,12,07,21.40
2006,06,12,12,08,21.30
2006,06,12,12,09,21.20
2006,06,12,12,10,20.90
2006,06,12,12,11,20.80
2006,06,12,12,12,20.80
2006,06,12,12,13,20.80
2006,06,12,12,14,20.90
2006,06,12,12,15,20.90
2006,06,12,12,16,20.90
2006,06,12,12,17,20.90
2006,06,12,12,18,20.90
2006,06,12,12,19,20.70
2006,06,12,12,20,20.60
2006,06,12,12,21,20.70
2006,06,12,12,22,20.80
2006,06,12,12,23,20.80
2006,06,12,12,24,20.80
2006,06,12,12,25,20.90
2006,06,12,12,26,21.00
2006,06,12,12,27,21.10
2006,06,12,12,28,21.30
2006,06,12,12,29,21.30
2006,06,12,12,30,21.30
2006,06,12,12,31,21.40
2006,06,12,12,32,21.50
2006,06,12,12,33,21.60
2006,06,12,12,34,21.60
2006,06,12,12,35,21.60
2006,06,12,12,36,21.60
2006,06,12,12,37,21.40
2006,06,12,12,38,21.20
2006,06,12,12,39,21.00
2006,06,12,12,40,20.90
2006,06,12,12,41,20.90
2006,06,12,12,42,20.90
2006,06,12,12,43,20.90
2006,06,12,12,44,20.80
2006,06,12,12,45,20.70
2006,06,12,12,46,20.70
2006,06,12,12,47,20.80
2006,06,12,12,48,20.90
2006,06,12,12,49,20.90
2006,06,12,12,50,20.90
2006,06,12,12,51,20.90
2006,06,12,12,52,20.80
2006,06,12,12,53,20.70
2006,06,12,12,54,20.60
2006,06,12,12,55,20.60
2006,06,12,12,56,20.60
2006,06,12,12,57,20.50
2006,06,12,12,58,20.50
2006,06,12,12,59,20.60
2006,06,12,13,00,20.60
2006,06,12,13,01,20.60
2006,06,12,13,02,20.60
2006,06,12,13,03,20.70
2006,06,12,13,04,20.90
2006,06,12,13,05,21.00
2006,06,12,13,06,21.10
2006,06,12,13,07,21.20
2006,06,12,13,08,21.20
2006,06,12,13,09,21.30
2006,06,12,13,10,21.40
2006,06,12,13,11,21.50
2006,06,12,13,12,21.60
2006,06,12,13,13,21.60
2006,06,12,13,14,21.60
2006,06,12,13,15,21.60
2006,06,12,13,16,21.50
2006,06,12,13,17,21.30
2006,06,12,13,18,21.30
2006,06,12,13,19,21.30
2006,06,12,13,20,21.30
2006,06,12,13,21,21.20
2006,06,12,13,22,21.30
2006,06,12,13,23,21.30
2006,06,12,13,24,21.40
2006,06,12,13,25,21.60
2006,06,12,13,26,21.80
2006,06,12,13,27,22.00
2006,06,12,13,28,22.10
2006,06,12,13,29,22.10
2006,06,12,13,30,22.10
2006,06,12,13,31,22.20
2006,06,12,13,32,22.20
2006,06,12,13,33,22.10
2006,06,12,13,34,22.10
2006,06,12,13,35,22.00
2006,06,12,13,36,22.00
2006,06,12,13,37,21.90
2006,06,12,13,38,21.90
2006,06,12,13,39,22.00
2006,06,12,13,40,22.00
2006,06,12,13,41,22.20
2006,06,12,13,42,22.30
2006,06,12,13,43,22.30
2006,06,12,13,44,22.40
2006,06,12,13,45,22.40
2006,06,12,13,46,22.40
2006,06,12,13,47,22.40
2006,06,12,13,48,22.40
2006,06,12,13,49,22.50
2006,06,12,13,50,22.60
2006,06,12,13,51,22.70
2006,06,12,13,52,22.80
2006,06,12,13,53,22.90
2006,06,12,13,54,22.90
2006,06,12,13,55,22.80
2006,06,12,13,56,22.70
2006,06,12,13,57,22.60
2006,06,12,13,58,22.60
2006,06,12,13,59,22.70
2006,06,12,14,00,22.70
2006,06,12,14,01,22.70
2006,06,12,14,02,22.80
2006,06,12,14,03,22.80
2006,06,12,14,04,22.90
2006,06,12,14,05,22.90
2006,06,12,14,06,22.90
2006,06,12,14,07,22.80
2006,06,12,14,08,22.80
2006,06,12,14,09,22.80
2006,06,12,14,10,22.80
2006,06,12,14,11,22.80
2006,06,12,14,12,22.80
2006,06,12,14,13,22.90
2006,06,12,14,14,22.90
2006,06,12,14,15,22.90
2006,06,12,14,16,22.90
2006,06,12,14,17,23.10
2006,06,12,14,18,23.20
2006,06,12,14,19,23.10
2006,06,12,14,20,23.10
2006,06,12,14,21,23.10
2006,06,12,14,22,23.10
2006,06,12,14,23,23.10
2006,06,12,14,24,23.10
2006,06,12,14,25,23.20
2006,06,12,14,26,23.20
2006,06,12,14,27,23.30
2006,06,12,14,28,23.30
2006,06,12,14,29,23.20
2006,06,12,14,30,23.20
2006,06,12,14,31,23.20
2006,06,12,14,32,23.40
2006,06,12,14,33,23.50
2006,06,12,14,34,23.60
2006,06,12,14,35,23.70
2006,06,12,14,36,23.70
2006,06,12,14,37,23.70
2006,06,12,14,38,23.70
2006,06,12,14,39,23.60
2006,06,12,14,40,23.50
2006,06,12,14,41,23.70
2006,06,12,14,42,23.70
2006,06,12,14,43,23.80
2006,06,12,14,44,23.80
2006,06,12,14,45,23.70
2006,06,12,14,46,23.60
2006,06,12,14,47,23.60
2006,06,12,14,48,23.60
2006,06,12,14,49,23.40
2006,06,12,14,50,23.40
2006,06,12,14,51,23.50
2006,06,12,14,52,23.70
2006,06,12,14,53,23.70
2006,06,12,14,54,23.70
2006,06,12,14,55,23.70
2006,06,12,14,56,23.70
2006,06,12,14,57,23.70
2006,06,12,14,58,23.70
2006,06,12,14,59,23.70
2006,06,12,15,00,23.80
2006,06,12,15,01,23.70
2006,06,12,15,02,23.40
2006,06,12,15,03,23.20
2006,06,12,15,04,23.10
2006,06,12,15,05,23.00
2006,06,12,15,06,22.90
2006,06,12,15,07,22.80
2006,06,12,15,08,22.70
2006,06,12,15,09,22.60
2006,06,12,15,10,22.60
2006,06,12,15,11,22.70
2006,06,12,15,12,22.90
2006,06,12,15,13,22.90
2006,06,12,15,14,23.00
2006,06,12,15,15,23.10
2006,06,12,15,16,23.10
2006,06,12,15,17,23.10
2006,06,12,15,18,23.20
2006,06,12,15,19,23.30
2006,06,12,15,20,23.30
2006,06,12,15,21,23.20
2006,06,12,15,22,23.00
2006,06,12,15,23,22.70
2006,06,12,15,24,22.40
2006,06,12,15,25,22.20
2006,06,12,15,26,21.80
2006,06,12,15,27,21.50
2006,06,12,15,28,21.40
2006,06,12,15,29,21.10
2006,06,12,15,30,21.00
2006,06,12,15,31,20.70
2006,06,12,15,32,20.50
2006,06,12,15,33,20.40
2006,06,12,15,34,20.30
2006,06,12,15,35,20.20
2006,06,12,15,36,20.20
2006,06,12,15,37,20.30
2006,06,12,15,38,20.30
2006,06,12,15,39,20.30
2006,06,12,15,40,20.20
2006,06,12,15,41,20.10
2006,06,12,15,42,20.00
2006,06,12,15,43,19.90
2006,06,12,15,44,19.90
2006,06,12,15,45,19.90
2006,06,12,15,46,20.00
2006,06,12,15,47,20.00
2006,06,12,15,48,19.90
2006,06,12,15,49,19.90
2006,06,12,15,50,19.90
2006,06,12,15,51,19.90
2006,06,12,15,52,19.90
2006,06,12,15,53,19.90
2006,06,12,15,54,19.90
2006,06,12,15,55,20.00
2006,06,12,15,56,20.10
2006,06,12,15,57,20.10
2006,06,12,15,58,20.20
2006,06,12,15,59,20.20
2006,06,12,16,00,20.20
2006,06,12,16,01,20.20
2006,06,12,16,02,20.40
2006,06,12,16,03,20.50
2006,06,12,16,04,20.70
2006,06,12,16,05,20.60
2006,06,12,16,06,20.60
2006,06,12,16,07,20.70
2006,06,12,16,08,20.70
2006,06,12,16,09,20.70
2006,06,12,16,10,20.70
2006,06,12,16,11,20.80
2006,06,12,16,12,20.80
2006,06,12,16,13,20.80
2006,06,12,16,14,20.80
2006,06,12,16,15,20.80
2006,06,12,16,16,20.80
2006,06,12,16,17,20.70
2006,06,12,16,18,20.60
2006,06,12,16,19,20.70
2006,06,12,16,20,20.80
2006,06,12,16,21,20.80
2006,06,12,16,22,20.90
2006,06,12,16,23,21.00
2006,06,12,16,24,21.10
2006,06,12,16,25,21.10
2006,06,12,16,26,21.10
2006,06,12,16,27,21.00
2006,06,12,16,28,21.00
2006,06,12,16,29,21.10
2006,06,12,16,30,21.00
2006,06,12,16,31,21.00
2006,06,12,16,32,21.00
2006,06,12,16,33,21.00
2006,06,12,16,34,21.00
2006,06,12,16,35,21.00
2006,06,12,16,36,21.00
2006,06,12,16,37,21.00
2006,06,12,16,38,21.00
2006,06,12,16,39,21.00
2006,06,12,16,40,21.00
2006,06,12,16,41,20.80
2006,06,12,16,42,20.60
2006,06,12,16,43,20.50
2006,06,12,16,44,20.50
2006,06,12,16,45,20.50
2006,06,12,16,46,20.50
2006,06,12,16,47,20.50
2006,06,12,16,48,20.30
2006,06,12,16,49,20.10
2006,06,12,16,50,19.80
2006,06,12,16,51,19.60
2006,06,12,16,52,19.50
2006,06,12,16,53,19.40
2006,06,12,16,54,19.30
2006,06,12,16,55,19.30
2006,06,12,16,56,19.30
2006,06,12,16,57,19.30
2006,06,12,16,58,19.30
2006,06,12,16,59,19.30
2006,06,12,17,00,19.30
2006,06,12,17,01,19.20
2006,06,12,17,02,19.10
2006,06,12,17,03,19.10
2006,06,12,17,04,19.10
2006,06,12,17,05,19.10
2006,06,12,17,06,19.10
2006,06,12,17,07,19.10
2006,06,12,17,08,18.90
2006,06,12,17,09,18.90
2006,06,12,17,10,18.90
2006,06,12,17,11,18.90
2006,06,12,17,12,18.90
2006,06,12,17,13,19.00
2006,06,12,17,14,19.10
2006,06,12,17,15,19.10
2006,06,12,17,16,19.10
2006,06,12,17,17,19.10
2006,06,12,17,18,19.10
2006,06,12,17,19,19.10